Home > Weather > Alajuela > Past weeks

Flag for Costa Rica Weather for the Past 2 Weeks in Alajuela, Costa Rica

Now
81 °F

Scattered clouds.


Feels Like: 83 °F
Forecast: 69 / 84 °F
Wind: 12 mph from Southwest

Location: Juan Santamaria

Current Time: Apr 30, 2016 at 11:30:11 AM

Latest Report: Apr 30, 2016 at 11:00 AM


Visibility: N/A

Pressure: 29.96 "Hg (26.87 "Hg at 955m altitude)

Humidity: 66%

Dew Point: 68 °F

Location of AlajuelaLocation

Historic Weather in Alajuela — Graph

°F

Alajuela Temperature Yesterday

Maximum temperature yesterday: 84 °F (at 10:00 AM)
Minimum temperature yesterday: 68 °F (at 2:00 AM)
Average temperature yesterday: 75 °F

High & Low Weather Summary for the Past Weeks

 TemperatureHumidityPressure
High90 °F (Apr 17, 12:00 PM)94% (Apr 24, 5:00 AM)30.07 "Hg (Apr 24, 5:00 AM)
Low66 °F (Apr 18, 2:00 AM)31% (Apr 15, 10:00 AM)29.88 "Hg (Apr 15, 3:00 PM)
Average76 °F68%29.99 "Hg
* Reported Apr 15 10:00 AM — Apr 30 10:00 AM, Alajuela, Weather by CustomWeather, © 2016

Note: Actual official high and low records may vary slightly from our data, if they occured in-between our weather recording intervals... More about our weather records

Advertising

Alajuela Weather History for the Previous 24 Hours

Scroll right to see more
 ConditionsComfort  
Time TempWeatherWind HumidityBarometerVisibility
10:00 AM
Sat, Apr 30
82 °FPartly sunny.7 mph62%29.98 "HgN/A
9:00 AM79 °FPartly sunny.6 mph70%29.99 "HgN/A
8:00 AM77 °FSunny.2 mph69%29.99 "Hg10 mi
7:00 AM75 °FPartly sunny.No wind74%30.00 "HgN/A
6:00 AM70 °FFog.2 mph88%29.98 "Hg3 mi
5:00 AM70 °FFog.2 mph88%29.95 "Hg3 mi
4:00 AM70 °FFog.2 mph94%29.93 "Hg3 mi
3:00 AM72 °FPassing clouds.3 mph88%29.94 "Hg2 mi
2:00 AM72 °FLight fog.6 mph88%29.95 "HgN/A
1:00 AM72 °FFog.5 mph88%29.97 "Hg3 mi
12:00 AM72 °FFog.2 mph94%29.98 "Hg1 mi
11:00 PM
Fri, Apr 29
72 °FFog.No wind88%29.99 "Hg5 mi
10:00 PM72 °FFog.6 mph94%30.01 "Hg5 mi
9:00 PM72 °FPassing clouds.2 mph94%30.00 "HgN/A
8:00 PM73 °FPassing clouds.2 mph89%29.99 "HgN/A
7:00 PM73 °FPassing clouds.5 mph89%N/AN/A
5:00 PM75 °FDrizzle. Mostly cloudy.3 mph78%29.94 "HgN/A
4:00 PM77 °FThunderstorms. Mostly cloudy.6 mph74%29.92 "HgN/A
3:00 PM81 °FRain. Broken clouds.10 mph66%29.93 "HgN/A
2:00 PM82 °FScattered clouds.14 mph66%29.93 "HgN/A
1:00 PM84 °FScattered clouds.12 mph58%29.96 "HgN/A
12:00 PM84 °FScattered clouds.12 mph55%29.97 "HgN/A
11:00 AM82 °FScattered clouds.10 mph58%30.00 "HgN/A
Weather by CustomWeather, © 2016

See weather overviewHow to use our weather pages